This demonstration page uses our WeatherBlox Daily Observations layout. Learn more.

Left ArrowRight Arrow

40.92501, -98.34201

Hourly Observations for June 25, 2015

Temp ( °F °C ) Dew Point ( °F °C ) Humidity (%) Winds ( mph kmh ) Pressure ( in mb ) Visibility ( mi km ) Precip ( " mm )
12:53 am 00:53 Clear 69 20.6 67 19.4 93 93 NNE 5 7 29.94 1014 9 14 0.00 0.00
1:53 am 01:53 Clear 67 19.4 66 18.9 97 97 NNE 5 7 29.95 1014 7 11 0.00 0.00
2:53 am 02:53 Clear with Mist and Fog 66 18.9 65 18.3 96 96 N 6 9 29.95 1014 6 10 0.00 0.00
3:53 am 03:53 Clear with Mist and Fog 65 18.3 64 17.8 97 97 Calm 29.96 1014 4 6 0.00 0.00
4:53 am 04:53 Clear with Mist and Fog 64 17.8 64 17.8 100 100 NNE 6 9 29.97 1015 3 5 0.00 0.00
5:28 am 05:28 Mostly Clear with Mist and Fog 64 18 63 17 94 94 NNE 5 7 29.97 1015 3 4 0.00 0.00
5:50 am 05:50 Mostly Cloudy with Mist and Fog 63 17 63 17 100 100 NE 7 11 30.00 1016 2 3 0.00 0.00
5:53 am 05:53 Mostly Cloudy with Mist and Fog 64 17.8 63 17.2 96 96 NNE 7 11 29.98 1015 2 3 0.00 0.00
6:13 am 06:13 Mostly Cloudy with Mist and Fog 64 17.8 63 17.2 96 96 NNE 6 9 29.97 1015 2 2 0.00 0.00
6:23 am 06:23 Partly Cloudy with Mist and Fog 64 18 63 17 94 94 NE 3 6 29.97 1015 2 2 0.00 0.00
6:35 am 06:35 Mostly Cloudy with Mist and Fog 64 18 63 17 94 94 ENE 5 7 29.97 1015 2 2 0.00 0.00
6:53 am 06:53 Cloudy with Mist and Fog 65 18.3 65 18.3 100 100 NE 3 6 29.99 1016 2 3 0.00 0.00
7:53 am 07:53 Cloudy with Mist and Fog 67 19.4 66 18.9 97 97 NNE 12 19 30.01 1016 2 2 0.00 0.00
8:05 am 08:05 Cloudy with Mist and Fog 66 19 66 19 100 100 NNE 10 17 30.00 1016 3 4 0.00 0.00
8:16 am 08:16 Cloudy with Mist and Fog 68 20 65 18.3 90 90 NE 9 15 30.00 1016 3 5 0.00 0.00
8:28 am 08:28 Cloudy with Mist and Fog 67 19.4 65 18.3 93 93 NNE 10 17 30.00 1016 2 3 0.00 0.00
8:53 am 08:53 Cloudy with Mist and Fog 67 19.4 65 18.3 93 93 NNE 13 20 30.03 1017 3 5 0.00 0.00
9:50 am 09:50 Cloudy with Haze 70 21 64 18 83 83 NNE 10 17 30.00 1016 5 8 0.00 0.00
9:53 am 09:53 Cloudy with Haze 70 21.1 64 17.8 82 82 NE 13 20 30.02 1017 5 8 0.00 0.00
10:29 am 10:29 Partly Cloudy 71 21.7 65 18.3 81 81 NNE 9 15 29.97 1015 9 14 0.00 0.00
10:53 am 10:53 Partly Cloudy 73 22.8 65 18.3 76 76 NE 10 17 30.03 1017 10 16 0.00 0.00
11:12 am 11:12 Mostly Sunny 73 23 64 18 74 74 ENE 9 15 29.97 1015 10 16 0.00 0.00
11:53 am 11:53 Sunny 75 23.9 65 18.3 71 71 NE 8 13 30.02 1017 10 16 0.00 0.00
12:53 pm 12:53 Sunny 78 25.6 65 18.3 64 64 ENE 9 15 30.01 1016 10 16 0.00 0.00
1:53 pm 13:53 Sunny 81 27.2 65 18.3 58 58 ENE 10 17 30.00 1016 10 16 0.00 0.00
2:53 pm 14:53 Mostly Cloudy 82 27.8 63 17.2 53 53 NE 5 7 30.00 1016 10 16 0.00 0.00
3:53 pm 15:53 Partly Cloudy 84 28.9 65 18.3 53 53 NNE 13 20 29.97 1015 10 16 0.00 0.00
4:53 pm 16:53 Mostly Sunny 82 27.8 63 17.2 53 53 NE 10 17 29.97 1015 10 16 0.00 0.00
5:53 pm 17:53 Sunny 82 27.8 65 18.3 56 56 NE 14 22 29.98 1015 10 16 0.00 0.00
6:53 pm 18:53 Sunny 80 26.7 63 17.2 56 56 NE 13 20 29.98 1015 10 16 0.00 0.00
7:53 pm 19:53 Cloudy 77 25 61 16.1 58 58 NNE 15 24 29.99 1016 10 16 0.00 0.00
8:53 pm 20:53 Sunny 75 23.9 62 16.7 64 64 NE 12 19 29.98 1015 10 16 0.00 0.00
9:53 pm 21:53 Clear 72 22.2 60 15.6 66 66 NE 10 17 30.01 1016 10 16 0.00 0.00
10:53 pm 22:53 Clear 66 18.9 60 15.6 81 81 NNE 6 9 30.02 1017 10 16 0.00 0.00
11:53 pm 23:53 Clear 68 20 59 15 73 73 NNW 3 6 30.01 1016 10 16 0.00 0.00

Powered by AerisWeather